Regional Weather Roundup
Issued by NWS Newport/Morehead, NC

Current Version | Previous Version | Graphics & Text | Print | Product List | Glossary On
Versions: 1 2 3 4 5 6 7 8 9 10 11 12 13 14 15 16 17 18 19 20 21 22 23 24 25 26 27 28 29 30 31 32 33 34 35 36 37 38 39 40 41 42 43 44 45 46 47 48 49 50
000 ASUS42 KMHX 151422 RWRMHX WEATHER ROUNDUP FOR EASTERN NORTH CAROLINA NATIONAL WEATHER SERVICE NEWPORT/MOREHEAD CITY NC 1000 AM EDT MON SEP 15 2014 NOTE: "FAIR" INDICATES FEW OR NO CLOUDS BELOW 12,000 FEET WITH NO SIGNIFICANT WEATHER AND/OR OBSTRUCTIONS TO VISIBILITY NCZ015>017-031-032-045>047-102-103-151500- NORTH COAST CITY SKY/WX TMP DP RH WIND PRES REMARKS EDENTON CLOUDY 69 62 80 NE6 30.23S ELIZABETH CITY CLOUDY 69 61 75 N7 30.23S KITTY HAWK CLOUDY 71 59 66 NE7 30.21S MANTEO PTSUNNY 72 60 66 N12 30.22S $$ NCZ045>047-081-094-103-104-151500- CENTRAL COAST CITY SKY/WX TMP DP RH WIND PRES REMARKS FRISCO PTSUNNY 72 62 71 NE8 30.20R SWANQUARTER N/A 72 N/A N/A NE7G13 30.18S $$ NCZ095-097-098-100-101-151500- SOUTHERN COAST CITY SKY/WX TMP DP RH WIND PRES REMARKS BEAUFORT PTSUNNY 75 64 68 NE14 30.20S CEDAR ISLAND N/A 73 N/A N/A N9G16 30.24S JACKSONVILLE CLOUDY 69 63 81 N8 30.22R NEWPORT NOT AVBL PINEY ISLAND CLOUDY 75 62 64 N10 30.21R WILMINGTON CLOUDY 71 64 78 NE6 30.21S $$ NCZ011>013-027>030-043-044-078>080-089-090>093-098-151500- COASTAL PLAIN CITY SKY/WX TMP DP RH WIND PRES REMARKS AHOSKIE MOSUNNY 66 59 79 CALM 30.24F CLINTON CLOUDY 67 64 89 NE3 30.25R ELIZABETHTOWN CLOUDY 68 65 92 CALM 30.23S GOLDSBORO PTSUNNY 67 66 97 E5 30.23S GREENVILLE CLOUDY 66 63 88 CALM 30.26R HAVELOCK CLOUDY 72 63 73 NE9 30.23R KENANSVILLE CLOUDY 66 61 82 CALM 30.25S KINSTON CLOUDY 66 63 88 NE3 30.25R NEW BERN CLOUDY 70 62 76 N7 30.24R RICHLANDS CLOUDY 68 61 77 NW3 30.23S ROANOKE RAPIDS NOT AVBL ROCKY MOUNT CLOUDY 66 60 81 CALM 30.24S WASHINGTON CLOUDY 66 62 89 NW3 30.24S WHITEVILLE CLOUDY 69 65 88 NE3 30.22R $$ AMZ130-135-150-152-154-156-158-170-250-252-270-ANZ085-086-088-633-658-670-151500- MARINE OBSERVATIONS STATION/POSITION TIME TEMP WIND PRES WAVE SWELL AIR SEA DIR/SP/G HT/PER HT/PER (UTC) (F) (DEG/KT/KT) (MB) (FT/S) (FT/S) CHESAPEAKE LIGHT 1400 69 40/ 9/ 10 1024.3 BUOY 44014 1400 71 80 20/ 12/ 16 1022.7 3/ 6 2/ 6 DUCK 1400 70 76 50/ 10/ 12 1022.7 2E DUCK 1400 N/A 2/ 7 OREGON INLET 1400 72 74 20/ 12/ 15 1022.9 BUOY 44095 1400 76 N/A 4/ 8 20E OREGON INLET NOT AVBL HATTERAS CG 1400 73 77 20/ 12/ 16 1023.1 DIAMOND BUOY 1400 74 20/ 16/ 19 1021.8 5/ 8 3/ 8 CAPE LOOKOUT 1400 74 30/ 13/ 15 1022.4 BEAUFORT LAB 1400 74 78 30/ 10/ 14 1022.2 30 SE NEW RIVER 1400 75 82 40/ 14/ 16 1022.5 3/ 4 2/ 8 5 SE WRIGHTSVILL 1400 71 81 30/ 14/ 16 N/A BUOY 41002 1346 78 83 270/ 17/ 21 1021.5 4/ 5 2/ 8 BUOY 41004 1400 81 83 70/ 4/ 6 1021.3 2/ 5 2/ 5 $$

USA.gov is the U.S. government's official web portal to all federal, state and local government web resources and services.